Regional Weather Roundup
Issued by NWS

Home | Current Version | Previous Version | Text Only | Print | Product List | Glossary On
Versions: 1 2 3 4 5 6 7 8 9 10 11 12 13 14 15 16 17 18 19 20 21 22 23 24 25 26 27 28 29 30 31 32 33 34 35 36 37 38 39 40 41 42 43 44 45 46 47 48
000
ASUS45 KPSR 281410
RWRAZ

ARIZONA REGIONAL HOURLY WEATHER ROUNDUP
NATIONAL WEATHER SERVICE TUCSON AZ
700 AM MST WED JUN 28 2017

NOTE: FAIR INDICATES FEW OR NO CLOUDS BELOW 12,000 FEET WITH NO
SIGNIFICANT WEATHER AND/OR OBSTRUCTIONS TO VISIBILITY.

AZZ001>003-036-281500-
NORTHWEST ARIZONA

CITY           SKY/WX    TMP DP  RH WIND       PRES   REMARKS
BULLHEAD CITY  SUNNY     86  25  10 S7        29.71R
KINGMAN        SUNNY     79  23  12 SE6       29.89R
$$

AZZ004>008-015-016-018-281500-
NORTH CENTRAL ARIZONA

CITY           SKY/WX    TMP DP  RH WIND       PRES   REMARKS
GRAND CANYON   SUNNY     61  20  20 CALM      30.14S
PRESCOTT       SUNNY     73  21  14 E6        30.06R
FLAGSTAFF      SUNNY     55  23  28 CALM      30.20R
PAYSON         SUNNY     66  30  26 CALM      30.12S
PAGE           SUNNY     78  27  15 CALM      29.92R
$$

AZZ009>014-017-281500-
NORTHEAST ARIZONA

CITY           SKY/WX    TMP DP  RH WIND       PRES   REMARKS
WINSLOW        SUNNY     75  22  13 VRB5      30.04R
SAINT JOHNS    SUNNY     73  26  17 SW18G25   30.10R
WINDOW ROCK    SUNNY     68  21  16 CALM      30.16R
SHOW LOW       SUNNY     66  28  24 S13       30.19R
$$

AZZ023-281500-
GREATER PHOENIX AREA

CITY           SKY/WX    TMP DP  RH WIND       PRES   REMARKS
PHOENIX        MOSUNNY   87  43  21 SE6       29.81R
BUCKEYE        SUNNY     84  55  37 S5        29.81R
GLENDALE       SUNNY     86  48  26 CALM      29.83R
LUKE AFB       SUNNY     84  46  26 CALM      29.81R
DEER VALLEY    SUNNY     83  45  26 E5        29.83R
SCOTTSDALE     SUNNY     84  50  30 CALM      29.84R
MESA-FALCON    SUNNY    N/A N/A N/A MISG      29.84R
MESA-GATEWAY   SUNNY     81  46  30 SE9       29.85R
CHANDLER       SUNNY     84  46  26 VRB5      29.82R
$$

AZZ027-028-281500-
SOUTHWEST MARICOPA COUNTY AND PINAL COUNTY

CITY           SKY/WX    TMP DP  RH WIND       PRES   REMARKS
CASA GRANDE    SUNNY     83  50  31 CALM      29.86
$$

AZZ503-504-507>509-281500-
SOUTHEAST ARIZONA

CITY           SKY/WX    TMP DP  RH WIND       PRES   REMARKS
TUCSON         SUNNY     84  53  34 S13       29.96R
DAVIS-MONTHAN  SUNNY     83  51  32 S10       29.94R
RYAN FIELD     SUNNY     82  46  28 E3        29.94R
NOGALES        SUNNY     74  58  57 SE6       30.06R
SIERRA VISTA   SUNNY     74  50  42 NE3       30.11R
DOUGLAS        SUNNY     75  58  55 MISG      30.08R
SAFFORD        SUNNY     77  26  15 CALM      29.95R
$$

AZZ020-021-025-026-031-281500-
SOUTHWEST ARIZONA

CITY           SKY/WX    TMP DP  RH WIND       PRES   REMARKS
YUMA           SUNNY     81  71  71 SE14      29.73R
$$

CAZ031-033-041-043-047-048-061-281500-
SOUTHERN CALIFORNIA

CITY           SKY/WX    TMP DP  RH WIND       PRES   REMARKS
DOWNTOWN L.A.  CLOUDY    66  60  81 CALM      29.88R
L.A. AIRPORT   PTSUNNY   63  59  87 CALM      29.88R
SAN DIEGO      CLOUDY    63  58  83 VRB5      29.91R
BURBANK        SUNNY     63  55  75 SE5       29.88R
ONTARIO        MOSUNNY   65  54  67 CALM      29.88R
RIVERSIDE      SUNNY     63  55  75 CALM      29.88S
PALM SPRINGS   SUNNY     81  43  26 SW3       29.73R
EL CENTRO NAS  SUNNY     79  66  64 SE7       29.72R
IMPERIAL       SUNNY     79  67  66 VRB6      29.71R
BLYTHE         SUNNY     77  28  16 N3        29.72R
NEEDLES        SUNNY     89  22   8 CALM      29.73R
$$

NVZ020-UTZ003-281500-
SOUTHERN NEVADA-UTAH

CITY           SKY/WX    TMP DP  RH WIND       PRES   REMARKS
LAS VEGAS      SUNNY     84  21  10 S6        29.76R
SALT LAKE CITY SUNNY     72  39  30 S6        29.89R
$$

NMZ009-TXZ055-281500-
NEW MEXICO-WEST TEXAS

CITY           SKY/WX    TMP DP  RH WIND       PRES   REMARKS
ALBUQUERQUE    PTSUNNY   70  33  25 S6        30.08R
EL PASO        SUNNY     81  52  36 SW13      29.98S
$$


........................KEY........................
SKY/WX - SKY CONDITION/WEATHER
TMP    - TEMPERATURE IN FAHRENHEIT
DP     - DEWPOINT IN FAHRENHEIT
RH     - RELATIVE HUMIDITY IN PERCENT
WIND   - DIRECTION AND SPEED IN MILES PER HOUR (MPH)
VRB    - VARIABLE WIND DIRECTION
PRES   - MEAN SEA LEVEL PRESSURE IN INCHES OF MERCURY
         F - FALLING PRESSURE   R - RISING PRESSURE
         S - STEADY PRESSURE
VSB    - VISIBILITY IN MILES
HX     - HEAT INDEX IN FAHRENHEIT
WCI    - WIND CHILL INDEX IN FAHRENHEIT
TC     - TEMPERATURE IN CELSIUS WHICH IS ALSO KNOWN AS
         TEMPERATURE IN CENTIGRADE
AFB    - AIR FORCE BASE
         LUKE AFB IS LUKE AIR FORCE BASE
         DAVIS-MONTHAN IS DAVIS-MONTHAN AIR FORCE BASE
NAS    - NAVAL AIR STATION
         EL CENTRO NAS IS EL CENTRO NAVAL AIR STATION
N/A    - NOT AVAILABLE





USA.gov is the U.S. government's official web portal to all federal, state and local government web resources and services.